RH
10 10 12 14 18 23 29 39 50 67 74 66 47 42 33 52 70 71 81 83 52 55 51 47 46 44 38 40 44 36 27 24 28 22 16 13 44 88 100 88 75 77 69 64
16 27 33 39 49 56 62 72 78 68 74 68 53 42 56 61 57 73 57 55 53 48 45 49 42 38 43 56 49 46 41 44 41 32 24 17 14 72 73 96 96 81 74 67
40 49 53 58 62 87 85 80 76 79 72 67 79 50 65 67 70 81 52 66 58 52 50 49 52 52 49 56 56 51 49 53 50 44 25 24 17 57 79 98 99 98 80 70
46 53 57 60 77 75 87 75 80 85 97 86 66 89 50 72 70 63 71 58 56 61 70 76 66 59 60 60 68 73 72 66 56 44 26 31 20 40 51 89 84 87 86 77
46 46 50 53 60 61 76 68 80 95 96 96 82 85 62 63 64 65 61 62 67 77 70 70 68 70 66 76 76 89 90 74 47 35 39 35 24 25 45 98 95 100 95 85
40 45 48 53 56 58 61 62 88 95 98 95 78 77 56 54 61 55 68 74 80 72 59 62 63 89 91 78 74 82 95 68 59 55 49 42 31 28 64 87 97 92 98 92
48 47 45 52 58 71 96 74 90 93 99 91 78 81 38 52 55 56 48 45 45 48 30 15 14 71 79 78 81 91 70 47 55 78 52 36 33 30 56 89 93 88 83 84
84 66 51 52 51 60 94 85 97 96 93 82 69 87 45 50 43 43 47 43 34 15 12 11 69 79 94 98 94 96 69 47 42 55 62 54 66 53 60 76 81 82 85 88
86 81 55 52 54 55 83 98 82 93 75 86 69 65 60 47 36 35 39 34 28 12 11 55 90 100 98 99 98 87 79 50 43 31 32 57 65 60 62 73 71 68 73 66
80 62 62 56 46 47 57 57 87 96 84 87 62 59 50 53 35 32 35 34 19 12 12 16 16 69 95 99 90 88 82 61 52 48 56 62 61 58 70 63 63 65 63 61
44 60 62 55 58 75 72 73 73 78 78 84 83 57 40 48 34 31 27 29 14 12 14 14 13 11 81 69 95 99 100 96 100 100 46 38 49 66 71 71 72 67 64 61
49 49 55 36 64 56 47 46 61 61 68 66 65 64 45 40 33 28 21 18 14 12 14 16 16 14 12 10 10 51 99 99 94 79 64 61 50 42 35 33 37 40 39 90
38 56 60 66 56 46 42 36 39 66 64 61 74 51 42 33 40 29 19 19 13 12 14 16 18 17 15 14 13 12 11 18 70 97 94 100 79 82 93 92 97 99 96 98
26 34 39 46 35 49 56 60 63 64 74 59 52 17 18 44 42 44 24 12 13 11 13 16 18 19 18 16 15 15 14 13 12 11 10 22 48 42 9 9 11 10 9 10
28 32 28 28 22 22 24 26 35 64 63 65 15 32 11 14 16 15 22 11 9 10 12 15 17 19 20 19 17 16 15 14 13 12 10 8 7 6 5 4 4 4 3 3
37 35 38 28 22 32 30 15 16 16 27 47 23 12 18 14 14 14 14 13 10 9 11 13 14 14 16 20 21 18 16 15 14 12 10 7 4 4 4 4 4 4 4 4
64 71 74 50 32 30 24 10 11 13 11 12 28 7 14 12 12 10 11 12 10 10 10 12 13 13 14 15 17 20 20 18 15 13 11 9 6 5 4 4 4 4 4 4
45 69 84 74 46 64 22 11 9 6 8 9 8 8 12 11 8 8 8 8 9 9 10 11 12 12 12 14 16 17 18 21 20 17 14 12 10 8 6 5 4 4 5 5
39 66 76 70 69 27 14 8 6 9 6 7 9 9 9 12 12 14 11 9 9 10 9 10 10 11 12 13 15 17 18 18 21 22 20 16 14 11 8 7 6 6 5 5
37 61 80 74 69 53 16 15 13 10 9 10 8 8 8 10 12 12 13 12 10 10 8 9 9 10 10 12 14 16 18 19 20 22 23 21 17 14 12 10 9 7 6 5
37 88 60 81 90 34 11 14 20 16 11 10 10 11 12 14 16 15 13 15 16 13 10 8 8 9 10 12 15 16 18 19 20 20 23 23 22 18 15 13 11 9 8 6
22 27 46 75 89 52 13 11 11 10 13 15 15 14 17 14 11 11 11 10 12 14 18 16 12 10 11 13 15 16 17 18 19 20 21 24 25 23 19 14 11 8 7 5
36 24 29 27 18 16 15 15 18 18 19 21 22 23 19 13 16 14 12 13 13 13 16 22 21 18 16 17 19 19 18 19 20 20 20 23 26 26 23 18 16 12 9 7
41 36 36 33 21 24 26 23 24 24 24 26 25 21 23 19 18 22 21 14 12 15 15 20 24 25 25 26 24 25 22 20 20 23 22 22 24 26 26 24 19 12 8 7
46 42 38 30 19 23 26 32 31 26 24 27 30 31 31 32 22 24 28 33 29 26 23 21 19 22 27 30 33 32 30 28 27 28 26 22 23 26 27 24 17 11 8 11
21 22 33 22 18 27 28 29 29 28 28 30 33 30 30 32 31 29 25 28 33 21 15 16 19 21 24 30 43 41 39 38 34 33 30 26 26 28 28 21 14 11 14 29
Wind_Speed
1 2 4 5 4 5 9 12 16 15 18 27 25 32 25 23 22 25 17 26 26 26 29 33 35 38 41 39 36 35 35 34 36 38 40 46 49 51 42 49 46 41 35 33
6 8 6 6 7 8 10 13 15 19 12 28 25 27 17 15 11 13 21 25 28 35 34 34 31 29 32 36 36 35 35 36 37 41 38 42 46 47 51 43 43 41 37 35
6 5 6 7 9 9 8 10 14 22 27 11 14 14 8 16 12 17 21 30 40 41 40 36 31 30 30 31 34 37 38 36 35 36 38 39 41 44 47 39 48 41 38 35
4 5 5 9 10 10 5 11 19 21 19 7 12 7 15 9 18 23 31 35 29 27 25 27 33 37 35 33 31 35 35 32 32 31 36 36 39 44 47 40 44 43 38 37
4 6 6 8 9 11 4 16 18 13 10 13 2 7 7 18 22 29 30 27 22 21 24 26 31 35 38 31 30 31 30 29 28 30 32 33 35 41 46 37 42 45 39 38
3 3 4 6 10 9 12 16 4 5 5 3 1 2 14 14 25 25 26 19 21 22 26 27 32 34 35 34 30 28 27 23 24 23 25 27 30 37 39 42 34 39 28 34
6 5 5 5 9 11 16 15 3 3 1 4 5 9 11 20 20 17 21 20 17 20 26 30 33 35 32 30 27 16 14 15 19 20 23 25 25 31 37 40 33 35 38 38
8 5 6 5 9 7 9 11 4 3 4 6 18 8 10 17 17 18 20 23 21 24 28 29 33 29 25 23 10 6 6 3 9 16 20 23 26 31 34 36 35 37 37 37
5 4 9 8 9 7 6 5 7 4 7 7 7 13 23 11 19 21 21 21 23 24 24 28 29 24 21 17 13 1 3 1 3 12 16 18 23 27 31 34 34 34 35 37
4 9 6 10 11 8 5 8 3 3 4 5 9 15 14 18 19 19 20 21 21 21 18 22 25 28 19 18 13 6 0 2 6 8 8 14 19 23 25 27 31 31 32 35
8 5 4 12 4 4 6 4 3 4 7 2 4 12 14 17 20 17 17 18 17 17 16 16 18 19 20 19 15 6 2 1 3 6 5 6 12 20 24 26 28 29 30 31
8 7 11 14 9 14 15 14 10 5 2 8 11 15 13 18 25 20 17 16 17 16 15 14 16 16 16 16 17 22 17 6 2 6 6 4 5 13 21 24 26 29 27 18
13 5 9 1 8 10 11 12 14 14 18 19 4 10 13 26 31 26 20 16 16 15 14 13 13 13 13 13 14 14 14 16 14 6 5 4 10 9 7 12 16 15 9 16
16 15 16 14 11 11 22 18 17 17 12 13 28 35 23 20 19 26 28 19 14 14 12 11 12 12 12 11 11 10 11 10 10 8 7 5 3 3 4 6 9 12 14 16
14 22 21 28 30 31 35 35 32 34 37 23 29 22 25 25 26 22 23 22 17 13 12 10 9 10 12 12 11 10 10 9 9 8 6 4 3 3 6 8 10 12 14 17
17 17 22 37 20 12 26 28 28 30 36 45 41 34 14 14 15 18 17 21 18 15 13 12 11 11 10 10 11 11 11 11 10 10 9 9 9 10 12 13 14 15 16 18
19 15 18 12 13 27 24 7 12 19 24 24 33 18 19 17 20 20 21 21 19 17 15 13 11 10 10 10 10 11 11 11 11 12 12 12 12 13 13 14 15 16 17 19
27 15 11 19 16 3 4 11 13 15 16 18 21 15 15 17 15 16 18 20 19 17 16 15 13 13 13 12 12 12 11 11 11 12 13 14 15 16 16 17 17 18 19 20
24 22 13 8 10 26 18 6 6 10 15 19 18 9 6 13 25 22 18 16 16 18 17 16 15 15 14 14 14 13 13 13 13 13 14 15 16 16 16 16 17 19 20 22
12 19 17 5 6 6 6 12 12 13 23 7 7 10 15 27 26 18 19 19 18 18 19 17 17 16 15 15 15 15 14 15 15 15 16 17 18 19 20 21 22 23 24 25
13 16 29 25 11 18 21 18 14 6 7 15 20 25 30 31 32 34 32 26 23 22 22 22 20 20 19 17 17 17 17 17 17 18 19 20 20 21 22 23 25 26 26 27
11 9 14 17 13 16 5 7 11 18 32 32 34 31 35 34 25 25 21 16 20 23 25 24 24 23 23 21 20 20 20 20 19 19 20 21 22 23 24 24 24 26 26 26
20 22 15 20 19 23 25 32 38 34 36 36 36 36 34 24 22 20 20 23 22 20 21 24 26 26 25 23 23 23 23 22 23 23 23 23 24 24 25 26 28 29 29 28
30 29 35 36 41 39 39 39 38 39 35 29 31 28 28 24 22 19 18 19 19 20 21 22 26 27 26 26 27 26 26 25 25 25 24 25 25 26 27 29 30 30 31 31
40 37 41 50 44 40 31 25 24 27 27 29 29 31 33 31 27 27 23 24 25 25 24 24 25 27 27 28 28 28 28 27 27 27 27 27 27 28 28 29 30 31 33 34
50 48 48 49 28 29 26 26 28 30 30 30 31 32 32 31 30 31 32 31 30 27 24 25 24 26 27 27 27 28 28 28 27 27 28 27 28 29 29 29 29 31 32 34
Wind_Direction
310 5 10 14 0 322 303 298 300 319 289 292 303 303 314 309 294 282 268 261 284 292 293 289 284 281 281 271 261 263 263 263 264 262 251 247 240 232 245 242 250 242 241 247
74 53 25 359 339 327 324 329 328 308 289 302 309 308 309 311 300 279 285 294 297 291 286 288 281 287 284 276 271 261 262 265 261 258 255 245 241 239 235 243 246 247 240 243
46 21 20 7 360 351 343 293 295 310 312 343 314 325 344 315 307 276 310 307 303 296 288 281 281 288 280 271 270 271 269 270 265 258 250 244 234 232 234 232 236 232 234 241
45 34 20 10 18 341 335 303 304 317 330 312 314 290 290 272 282 299 305 309 306 311 304 291 292 291 278 271 268 274 273 268 264 260 249 239 236 230 230 237 242 235 237 242
21 13 2 2 350 343 282 317 316 310 310 318 3 275 294 300 305 316 323 326 333 345 339 324 310 304 295 280 266 271 272 263 261 257 243 237 231 227 223 233 241 223 227 239
348 8 350 329 337 336 336 341 330 354 343 280 180 295 285 320 330 346 346 343 352 347 349 346 337 323 309 304 293 286 270 265 254 250 236 235 232 224 222 233 239 248 238 241
337 290 296 319 342 347 353 2 339 344 296 242 264 284 300 342 343 353 12 19 7 4 354 344 335 328 313 309 299 283 260 261 243 232 222 220 225 222 224 226 239 241 248 253
348 311 306 322 345 341 346 24 42 314 338 297 292 247 305 324 346 343 340 341 342 350 348 347 344 343 350 347 313 269 259 284 231 229 219 221 213 211 219 227 240 241 243 251
341 287 305 295 307 333 331 8 336 279 303 278 245 279 300 325 335 339 334 343 347 353 356 359 17 2 4 4 30 15 231 213 228 225 233 225 210 211 220 229 238 253 249 254
302 302 307 294 304 297 256 311 326 310 308 299 286 274 272 320 334 340 342 346 345 351 357 1 0 17 23 31 31 48 171 196 236 247 209 207 209 216 222 233 239 245 248 253
329 310 294 308 311 290 287 307 302 274 236 265 305 287 297 321 340 341 344 340 343 345 358 5 11 25 44 38 36 59 43 294 245 213 195 202 221 225 233 246 254 257 261 261
306 292 274 297 265 270 261 248 230 227 219 268 282 273 304 331 337 336 339 340 334 335 350 3 10 21 22 31 36 40 62 77 77 108 122 134 214 236 240 243 247 252 255 254
307 299 308 283 253 265 255 259 245 234 259 259 249 260 305 326 327 329 331 332 329 329 339 355 4 14 32 27 32 44 54 55 62 77 57 181 172 182 226 225 240 264 261 254
297 272 246 252 267 275 278 264 265 247 244 252 245 278 286 300 308 313 319 326 326 324 332 344 353 1 14 25 30 34 45 60 72 79 83 88 134 238 277 270 268 267 267 269
278 274 283 281 284 286 281 271 259 243 250 250 271 274 288 299 293 298 294 310 318 317 315 326 341 351 359 3 10 17 22 23 28 34 33 28 360 318 299 293 290 290 290 291
288 281 296 294 306 288 289 281 267 257 250 256 271 283 314 286 297 306 302 300 307 308 314 320 328 336 343 350 353 356 359 2 1 359 353 347 341 333 327 322 319 315 309 303
283 289 311 290 299 304 294 328 272 262 263 266 257 304 294 293 300 299 294 294 298 300 301 303 308 312 319 326 335 342 344 343 341 338 334 332 330 326 323 320 318 317 315 313
253 266 289 287 325 285 282 295 289 281 286 279 284 290 278 294 309 317 300 288 291 294 294 298 303 307 313 318 323 327 331 334 332 329 326 324 325 325 323 320 318 315 313 311
243 244 252 267 289 291 301 321 336 270 289 292 288 269 274 311 316 305 304 292 281 284 287 288 293 299 305 310 313 316 318 319 321 322 321 318 315 311 308 305 304 304 305 306
234 229 216 250 261 261 279 305 301 293 296 307 270 273 293 308 309 318 313 298 285 280 285 285 285 288 292 295 297 299 303 305 307 310 312 312 310 310 310 309 310 311 312 313
209 217 225 234 257 273 290 286 286 266 312 318 307 300 300 305 304 298 296 293 290 288 286 283 282 283 283 284 286 292 294 296 302 306 309 310 311 312 313 314 315 314 313 313
253 231 220 214 221 267 268 253 263 299 304 307 303 302 303 310 316 309 295 296 293 286 278 279 278 277 277 282 284 288 291 295 296 298 303 307 309 311 311 311 311 311 312 313
248 263 255 247 268 279 278 285 293 294 299 301 298 296 300 301 303 298 292 291 289 286 280 272 273 273 278 280 281 284 286 290 292 297 300 302 304 306 308 310 311 311 310 310
267 264 261 273 283 286 285 290 290 285 287 282 288 286 287 290 289 294 293 294 293 292 288 275 270 274 278 280 279 280 283 286 289 292 294 296 300 305 310 311 311 311 310 311
265 269 271 281 297 302 301 290 284 278 276 279 281 283 288 288 286 287 296 304 295 289 289 286 280 275 275 276 276 278 282 285 288 291 293 298 303 307 310 313 315 316 314 313
277 279 275 285 311 295 300 298 289 281 281 283 282 283 287 288 287 284 287 292 292 293 290 287 285 281 279 273 270 274 279 284 287 290 295 300 303 307 312 315 316 316 314 313